AT160 Weather Reports


Display with metric or nautical units.
time (UTC)temp
F
wind
direction
speed
MPH
gust
MPH
rain 1hr
in
rain 24hr
in
rain mn
in
humidity
%
barometer
mb
20260508002028 60 356 0.0 0.0 0.00 0.00 0.00 100 1015.3
20260508001458 60 354 0.0 2.0 0.00 0.00 0.00 100 1015.3
20260508000951 60 357 0.0 2.0 0.00 0.00 0.00 100 1015.4
20260508000445 60 356 0.0 0.0 0.00 0.00 0.00 100 1015.4
20260507235640 60 357 0.0 0.0 0.00 0.00 0.00 100 1015.4
20260507235140 60 353 0.0 0.0 0.00 0.00 0.00 99 1015.4
20260507234842 60 356 0.0 0.0 0.00 0.00 0.00 99 1015.5
20260507234639 60 354 0.0 0.0 0.00 0.00 0.00 99 1015.4
20260507233635 60 356 0.0 0.0 0.00 0.00 0.00 99 1015.5
20260507233141 60 356 0.0 0.0 0.00 0.00 0.00 99 1015.5
20260507232647 60 356 0.0 0.0 0.00 0.00 0.00 98 1015.7
20260507232133 60 354 0.0 0.0 0.00 0.00 0.00 98 1015.7
20260507231627 60 357 0.0 0.0 0.00 0.00 0.00 97 1015.7
20260507231335 61 325 0.0 0.0 0.00 0.00 0.00 97 1015.9
20260507231137 60 354 0.0 0.0 0.00 0.00 0.00 97 1015.8
20260507230130 61 343 0.0 0.0 0.00 0.00 0.00 97 1015.9
20260507225635 61 337 0.0 0.0 0.00 0.00 0.00 97 1015.9
20260507225612 61 325 0.0 0.0 0.00 0.00 0.00 97 1015.9
20260507224854 61 332 0.0 0.0 0.00 0.00 0.00 96 1016.0
20260507224621 61 309 0.0 0.0 0.00 0.00 0.00 97 1015.9
20260507223606 61 330 0.0 0.0 0.00 0.00 0.00 96 1016.0
20260507223103 61 268 0.0 0.0 0.00 0.00 0.00 96 1016.0
20260507222539 61 268 0.0 0.0 0.00 0.00 0.00 96 1016.1
20260507222306 61 268 0.0 0.0 0.00 0.00 0.00 96 1016.1
20260507222104 62 268 0.0 0.0 0.00 0.00 0.00 96 1016.1
20260507221010 61 267 0.0 0.0 0.00 0.00 0.00 95 1016.2
20260507220454 61 268 0.0 0.0 0.00 0.00 0.00 95 1016.2
20260507215954 61 267 0.0 0.0 0.00 0.00 0.00 95 1016.2
20260507215448 61 267 0.0 0.0 0.00 0.00 0.00 95 1015.9
20260507214953 62 267 0.0 0.0 0.00 0.00 0.00 95 1015.9
20260507214413 62 267 0.0 0.0 0.00 0.00 0.00 95 1015.9
20260507213912 62 267 0.0 0.0 0.00 0.00 0.00 95 1015.9
20260507213408 62 267 0.0 0.0 0.00 0.00 0.00 95 1015.9
20260507212853 62 267 0.0 0.0 0.00 0.00 0.00 95 1015.9
20260507211841 62 267 0.0 0.0 0.00 0.00 0.00 95 1015.9
20260507211332 62 267 0.0 0.0 0.00 0.00 0.00 95 1015.9
20260507210803 62 267 0.0 0.0 0.00 0.00 0.00 95 1015.9
20260507210221 62 267 0.0 0.0 0.00 0.00 0.00 96 1015.9
20260507205717 62 267 0.0 2.0 0.00 0.00 0.00 96 1016.0
20260507205150 62 267 0.0 2.0 0.00 0.00 0.00 96 1016.0
20260507204621 62 267 0.0 2.0 0.00 0.00 0.00 96 1016.0
20260507204111 62 264 0.0 2.0 0.00 0.00 0.00 96 1016.0
20260507203612 62 274 0.0 0.0 0.00 0.00 0.00 96 1016.0
20260507203107 62 275 0.0 0.0 0.00 0.00 0.00 96 1016.0
20260507202557 62 275 0.0 2.0 0.00 0.00 0.00 96 1015.9
20260507202152 61 256 0.0 2.0 0.00 0.00 0.00 96 1015.9
20260507202041 62 275 0.0 2.0 0.00 0.00 0.00 96 1015.9
20260507201542 61 280 0.0 2.0 0.00 0.00 0.00 96 1015.9
20260507200518 61 254 0.0 1.0 0.00 0.00 0.00 96 1015.9
20260507200019 62 257 0.0 1.0 0.00 0.00 0.00 96 1015.9
20260507195458 62 261 0.0 2.0 0.00 0.00 0.00 96 1015.9
20260507194951 62 261 0.0 2.0 0.00 0.00 0.00 96 1015.9
20260507194443 62 261 0.0 1.0 0.00 0.00 0.00 96 1015.9
20260507193939 62 261 0.0 2.0 0.00 0.00 0.00 96 1015.9
20260507193246 62 257 0.0 1.0 0.00 0.00 0.00 96 1015.7
20260507193011 62 278 0.0 2.0 0.00 0.00 0.00 96 1015.9
20260507192821 62 278 0.0 0.0 0.00 0.00 0.00 96 1015.8
20260507192735 62 257 0.0 0.0 0.00 0.00 0.00 96 1015.8
20260507191337 62 257 0.0 1.0 0.00 0.00 0.00 96 1015.7
20260507190330 62 257 0.0 0.0 0.00 0.00 0.00 96 1015.7
20260507185822 62 257 0.0 0.0 0.00 0.00 0.00 96 1015.6
20260507184812 63 257 0.0 2.0 0.00 0.00 0.00 95 1015.6
20260507184313 63 257 0.0 2.0 0.00 0.00 0.00 95 1015.5
20260507183801 63 244 0.0 2.0 0.00 0.00 0.00 94 1015.5
20260507183302 63 246 0.0 3.0 0.00 0.00 0.00 94 1015.5
20260507182737 63 240 0.0 3.0 0.00 0.00 0.00 93 1015.4
20260507182211 64 243 0.0 0.0 0.00 0.00 0.00 93 1015.4
20260507181704 64 243 0.0 1.0 0.00 0.00 0.00 92 1015.4
20260507181155 64 243 0.0 3.0 0.00 0.00 0.00 92 1015.4
20260507180703 64 243 0.0 3.0 0.00 0.00 0.00 91 1015.4
20260507180139 65 244 0.0 1.0 0.00 0.00 0.00 90 1015.4
20260507175635 65 243 0.0 0.0 0.00 0.00 0.00 90 1015.2
20260507175114 65 247 0.0 0.0 0.00 0.00 0.00 89 1015.2
20260507174610 65 243 0.0 0.0 0.00 0.00 0.00 89 1015.2
20260507174057 65 243 0.0 3.0 0.00 0.00 0.00 88 1015.3
20260507173533 65 243 0.0 3.0 0.00 0.00 0.00 87 1015.3
20260507173012 66 20 0.0 0.0 0.00 0.00 0.00 87 1015.3
20260507172423 66 20 0.0 0.0 0.00 0.00 0.00 86 1015.2
20260507171924 66 20 0.0 0.0 0.00 0.00 0.00 86 1015.2
20260507171416 66 20 0.0 0.0 0.00 0.00 0.00 86 1015.2
20260507170402 67 20 0.0 0.0 0.00 0.00 0.00 85 1015.1
20260507165845 67 20 0.0 0.0 0.00 0.00 0.00 85 1015.3
20260507165348 67 20 0.0 0.0 0.00 0.00 0.00 84 1015.3
20260507164834 67 20 0.0 2.0 0.00 0.00 0.00 84 1015.3
20260507164306 67 20 0.0 2.0 0.00 0.00 0.00 83 1015.1
20260507164256 67 20 0.0 0.0 0.00 0.00 0.00 82 1015.1
20260507163248 67 20 0.0 2.0 0.00 0.00 0.00 81 1015.1
20260507162739 67 20 0.0 3.0 0.00 0.00 0.00 81 1015.4
20260507162233 67 20 0.0 3.0 0.00 0.00 0.00 81 1015.4
20260507162016 67 291 0.0 0.0 0.00 0.00 0.00 81 1015.6
20260507161752 67 311 0.0 0.0 0.00 0.00 0.00 81 1015.4
20260507160723 67 291 0.0 1.0 0.00 0.00 0.00 81 1015.6
20260507160203 67 291 0.0 1.0 0.00 0.00 0.00 81 1015.6
20260507155624 68 0 0.0 0.0 0.00 0.00 0.00 81 1015.5
20260507155100 68 0 0.0 0.0 0.00 0.00 0.00 81 1015.5
20260507154547 68 0 0.0 0.0 0.00 0.00 0.00 80 1015.5
20260507154035 68 0 0.0 2.0 0.00 0.00 0.00 80 1015.9
20260507153527 68 0 1.0 3.0 0.00 0.00 0.00 80 1015.9
20260507153001 68 359 0.0 3.0 0.00 0.00 0.00 80 1015.9
20260507152505 68 328 0.0 2.0 0.00 0.00 0.00 79 1015.9
20260507151953 68 296 0.0 2.0 0.00 0.00 0.00 78 1015.9
20260507151449 68 296 0.0 2.0 0.00 0.00 0.00 78 1015.9
20260507150938 68 48 0.0 0.0 0.00 0.00 0.00 77 1016.0
20260507150442 68 41 0.0 0.0 0.00 0.00 0.00 77 1016.0
20260507145933 68 48 0.0 0.0 0.00 0.00 0.00 76 1016.0
20260507145430 68 51 0.0 0.0 0.00 0.00 0.00 77 1016.1
20260507145117 68 44 0.0 1.0 0.00 0.00 0.00 76 1016.1
20260507144931 68 23 0.0 0.0 0.00 0.00 0.00 76 1016.1
20260507143936 68 58 0.0 3.0 0.00 0.00 0.00 76 1016.0
20260507143433 68 55 0.0 3.0 0.00 0.00 0.00 76 1016.0
20260507142935 69 72 0.0 1.0 0.00 0.00 0.00 76 1016.0
20260507142433 69 69 0.0 1.0 0.00 0.00 0.00 76 1016.1
20260507141922 68 71 0.0 0.0 0.00 0.00 0.00 76 1016.1
20260507141421 68 34 0.0 0.0 0.00 0.00 0.00 75 1016.1
20260507140920 68 34 0.0 2.0 0.00 0.00 0.00 75 1016.0
20260507140425 68 34 0.0 2.0 0.00 0.00 0.00 74 1016.0
20260507135922 68 37 0.0 2.0 0.00 0.00 0.00 74 1016.0
20260507135418 68 37 0.0 1.0 0.00 0.00 0.00 74 1016.0
20260507134914 68 37 0.0 5.0 0.00 0.00 0.00 74 1016.0
20260507134417 68 35 1.0 5.0 0.00 0.00 0.00 73 1016.0
20260507133857 68 35 0.0 3.0 0.00 0.00 0.00 74 1016.0
20260507133350 68 64 1.0 3.0 0.00 0.00 0.00 74 1016.0
20260507132958 68 34 1.0 3.0 0.00 0.00 0.00 74 1016.0
20260507132831 68 30 2.0 5.0 0.00 0.00 0.00 73 1016.0
20260507132316 68 47 1.0 5.0 0.00 0.00 0.00 73 1016.0
20260507131311 67 38 0.0 5.0 0.00 0.00 0.00 74 1016.0
20260507130813 67 40 0.0 5.0 0.00 0.00 0.00 74 1016.0
20260507130311 68 40 0.0 3.0 0.00 0.00 0.00 74 1016.0
20260507125810 68 11 0.0 1.0 0.00 0.00 0.00 75 1016.5
20260507125309 67 11 0.0 1.0 0.00 0.00 0.00 75 1016.5
20260507124755 67 11 0.0 3.0 0.00 0.00 0.00 75 1016.5
20260507124619 67 11 1.0 5.0 0.00 0.00 0.00 75 1016.7
20260507123738 67 0 1.0 5.0 0.00 0.00 0.00 76 1016.7
20260507123231 66 347 1.0 5.0 0.00 0.00 0.00 76 1016.7
20260507122853 66 312 2.0 6.0 0.00 0.00 0.00 75 1016.2
20260507122716 66 329 1.0 5.0 0.00 0.00 0.00 76 1016.2
20260507121704 66 346 3.0 6.0 0.00 0.00 0.00 76 1016.2
20260507121204 66 359 3.0 7.0 0.00 0.00 0.00 76 1016.8
20260507120655 66 25 2.0 7.0 0.00 0.00 0.00 75 1016.8
20260507120155 66 25 2.0 6.0 0.00 0.00 0.00 76 1016.8
20260507115656 66 0 2.0 7.0 0.00 0.00 0.00 77 1017.4
20260507115149 66 304 2.0 7.0 0.00 0.00 0.00 77 1017.4
20260507114822 65 17 3.0 7.0 0.00 0.00 0.00 80 1017.4
20260507114647 66 311 2.0 7.0 0.00 0.00 0.00 80 1017.4
20260507113653 65 6 3.0 7.0 0.00 0.00 0.00 81 1017.4
20260507113146 65 357 2.0 7.0 0.00 0.00 0.00 82 1017.4
20260507112643 66 350 1.0 7.0 0.00 0.00 0.00 84 1017.3
20260507112149 66 337 1.0 5.0 0.00 0.00 0.00 83 1017.3
20260507111649 66 356 1.0 5.0 0.00 0.00 0.00 82 1017.3
20260507111120 66 346 1.0 5.0 0.00 0.00 0.00 82 1017.4
20260507110616 66 350 1.0 3.0 0.00 0.00 0.00 80 1017.4
20260507110605 66 339 1.0 3.0 0.00 0.00 0.00 80 1017.4
20260507105554 66 343 1.0 5.0 0.00 0.00 0.00 79 1017.4
20260507105046 66 332 1.0 5.0 0.00 0.00 0.00 77 1017.4
20260507104542 66 344 1.0 5.0 0.00 0.00 0.00 77 1017.4
20260507104048 66 325 1.0 5.0 0.00 0.00 0.00 75 1017.4
20260507103536 66 311 2.0 6.0 0.00 0.00 0.00 75 1017.4
20260507103026 66 313 2.0 6.0 0.00 0.00 0.00 73 1017.4
20260507102518 66 342 1.0 5.0 0.00 0.00 0.00 73 1017.2
20260507102007 67 330 1.0 6.0 0.00 0.00 0.00 71 1017.2
20260507101857 67 340 1.0 6.0 0.00 0.00 0.00 71 1017.2
20260507100958 67 7 0.0 5.0 0.00 0.00 0.00 72 1017.2
20260507100637 67 0 1.0 5.0 0.00 0.00 0.00 71 1017.1
20260507100523 67 21 0.0 3.0 0.00 0.00 0.00 72 1017.2
20260507100219 67 354 3.0 6.0 0.00 0.00 0.00 69 1017.0
20260507100031 67 3 0.0 3.0 0.00 0.00 0.00 72 1017.2
20260507095821 67 10 2.0 5.0 0.00 0.00 0.00 70 1017.1
20260507093904 67 342 3.0 7.0 0.00 0.00 0.00 69 1017.0
20260507093402 67 1 3.0 7.0 0.00 0.00 0.00 69 1017.0
20260507092900 67 325 2.0 7.0 0.00 0.00 0.00 69 1016.9
20260507092528 67 0 2.0 7.0 0.00 0.00 0.00 69 1016.9
20260507092402 67 330 2.0 6.0 0.00 0.00 0.00 69 1016.9
20260507091812 67 357 2.0 7.0 0.00 0.00 0.00 69 1016.5
20260507090856 67 0 2.0 6.0 0.00 0.00 0.00 70 1016.5
20260507090348 67 323 2.0 6.0 0.00 0.00 0.00 70 1016.5
20260507085816 67 10 2.0 7.0 0.00 0.00 0.00 70 1016.3
20260507085335 67 8 2.0 7.0 0.00 0.00 0.00 70 1016.3
20260507084845 67 0 2.0 6.0 0.00 0.00 0.00 71 1016.3
20260507084312 67 17 3.0 6.0 0.00 0.00 0.00 70 1016.1
20260507083811 67 10 2.0 6.0 0.00 0.00 0.00 70 1016.1
20260507083318 67 27 3.0 7.0 0.00 0.00 0.00 70 1016.1
20260507082844 67 1 3.0 7.0 0.00 0.00 0.00 69 1016.0
20260507082315 68 0 2.0 8.0 0.00 0.00 0.00 69 1016.0
20260507081810 68 0 2.0 8.0 0.00 0.00 0.00 68 1016.0
20260507081313 68 1 1.0 6.0 0.00 0.00 0.00 67 1016.0
20260507080811 68 13 2.0 6.0 0.00 0.00 0.00 66 1016.0
20260507080308 68 0 2.0 6.0 0.00 0.00 0.00 66 1016.0
20260507075811 68 325 1.0 5.0 0.00 0.00 0.00 67 1015.9
20260507075308 68 292 1.0 5.0 0.00 0.00 0.00 67 1015.9
20260507074928 68 1 2.0 6.0 0.00 0.00 0.00 68 1015.8
20260507074528 67 359 3.0 7.0 0.00 0.00 0.00 69 1015.8
20260507074001 67 264 2.0 7.0 0.00 0.00 0.00 70 1015.8
20260507073430 67 289 1.0 6.0 0.00 0.00 0.00 71 1015.8
20260507072843 67 282 2.0 7.0 0.00 0.00 0.00 74 1015.9
20260507072340 66 343 2.0 7.0 0.00 0.00 0.00 74 1015.9
20260507071803 66 284 3.0 8.0 0.00 0.00 0.00 75 1015.9
20260507071257 66 313 3.0 9.0 0.00 0.00 0.00 76 1015.8
20260507070752 65 315 3.0 9.0 0.00 0.00 0.00 78 1015.8
20260507070254 65 350 2.0 6.0 0.00 0.00 0.00 79 1015.8
20260507065745 65 339 1.0 6.0 0.00 0.00 0.00 81 1015.7
20260507065252 65 0 2.0 6.0 0.00 0.00 0.00 82 1015.7
20260507065125 64 0 2.0 7.0 0.00 0.00 0.00 82 1015.9
20260507064939 64 357 1.0 6.0 0.00 0.00 0.00 82 1015.9
20260507064928 64 25 0.0 6.0 0.00 0.00 0.00 83 1015.9
20260507064742 64 339 3.0 7.0 0.00 0.00 0.00 82 1015.7
20260507062742 64 16 1.0 3.0 0.00 0.00 0.00 83 1015.9
20260507062234 64 7 1.0 4.0 0.00 0.00 0.00 83 1015.9
20260507061726 64 6 1.0 6.0 0.00 0.00 0.00 83 1015.9
20260507061239 64 28 2.0 6.0 0.00 0.00 0.00 83 1015.8
20260507061111 62 0 3.0 7.0 0.00 0.00 0.00 86 1015.6
20260507060742 63 18 2.0 6.0 0.00 0.00 0.00 83 1015.8
20260507060306 63 0 2.0 6.0 0.00 0.00 0.00 83 1015.8
20260507055816 63 34 2.0 6.0 0.00 0.00 0.00 83 1015.7
20260507055239 63 30 2.0 6.0 0.00 0.00 0.00 85 1015.7
20260507054807 63 37 3.0 6.0 0.00 0.00 0.00 85 1015.7
20260507053921 62 21 3.0 7.0 0.00 0.00 0.00 86 1015.6
20260507053302 62 16 3.0 6.0 0.00 0.00 0.00 86 1015.6
20260507052907 61 21 2.0 5.0 0.00 0.00 0.00 86 1015.4
20260507052733 62 18 2.0 5.0 0.00 0.00 0.00 86 1015.4
20260507051723 61 10 1.0 5.0 0.00 0.00 0.00 87 1015.4
20260507051219 61 23 1.0 4.0 0.00 0.00 0.00 87 1015.4
20260507050711 61 13 0.0 1.0 0.00 0.00 0.00 88 1015.4
20260507050200 60 13 0.0 0.0 0.00 0.00 0.00 89 1015.3
20260507045703 60 14 0.0 0.0 0.00 0.00 0.00 89 1015.2
20260507045153 59 32 0.0 0.0 0.00 0.00 0.00 88 1015.2
20260507044659 59 28 0.0 0.0 0.00 0.00 0.00 88 1015.2
20260507044217 59 23 0.0 0.0 0.00 0.00 0.00 88 1015.0
20260507043643 59 14 0.0 0.0 0.00 0.00 0.00 89 1015.0
20260507043133 59 13 0.0 0.0 0.00 0.00 0.00 89 1015.0
20260507042622 59 13 0.0 0.0 0.00 0.00 0.00 89 1015.2
20260507042125 59 41 0.0 0.0 0.00 0.00 0.00 90 1015.2
20260507041625 58 30 0.0 0.0 0.00 0.00 0.00 89 1015.2
20260507041502 58 13 0.0 0.0 0.00 0.00 0.00 89 1014.9
20260507040845 58 13 0.0 0.0 0.00 0.00 0.00 89 1014.9
20260507040114 57 13 0.0 0.0 0.00 0.00 0.00 88 1014.9
20260507035932 57 13 0.0 3.0 0.00 0.00 0.00 84 1014.6
20260507035902 58 285 0.0 0.0 0.00 0.00 0.00 85 1014.4
20260507035654 57 13 0.0 1.0 0.00 0.00 0.00 88 1014.8
20260507035331 57 359 0.0 1.0 0.00 0.00 0.00 88 1014.8
20260507034825 57 0 0.0 2.0 0.00 0.00 0.00 87 1014.8
20260507034514 57 0 0.0 2.0 0.00 0.00 0.00 87 1014.8
20260507034219 57 349 0.0 0.0 0.00 0.00 0.00 86 1014.8
20260507033924 57 349 0.0 3.0 0.00 0.00 0.00 86 1014.8
20260507033605 57 349 0.0 3.0 0.00 0.00 0.00 86 1014.7
20260507033155 57 359 1.0 3.0 0.00 0.00 0.00 85 1014.7
20260507032202 57 326 0.0 2.0 0.00 0.00 0.00 84 1014.6
20260507030949 57 13 0.0 3.0 0.00 0.00 0.00 84 1014.6
20260507030510 57 295 0.0 0.0 0.00 0.00 0.00 84 1014.4
20260507025339 57 285 0.0 0.0 0.00 0.00 0.00 84 1014.4
20260507024825 58 285 0.0 0.0 0.00 0.00 0.00 84 1014.4
20260507023310 58 285 0.0 0.0 0.00 0.00 0.00 85 1014.4
20260507022654 58 282 0.0 0.0 0.00 0.00 0.00 85 1014.3
20260507022225 58 282 0.0 0.0 0.00 0.00 0.00 86 1014.3
20260507021623 58 282 0.0 0.0 0.00 0.00 0.00 86 1014.3
20260507021121 59 282 0.0 0.0 0.00 0.00 0.00 86 1014.3
20260507020602 59 282 0.0 0.0 0.00 0.00 0.00 86 1014.3
20260507020107 59 282 0.0 0.0 0.00 0.00 0.00 87 1014.3
20260507015547 59 282 0.0 0.0 0.00 0.00 0.00 88 1014.2
20260507015030 59 288 0.0 0.0 0.00 0.00 0.00 89 1014.2
20260507014529 58 306 0.0 0.0 0.00 0.00 0.00 89 1014.2
20260507014023 58 309 0.0 1.0 0.00 0.00 0.00 89 1014.2
20260507013521 58 311 0.0 1.0 0.00 0.00 0.00 90 1014.2
20260507013022 58 306 0.0 2.0 0.00 0.00 0.00 90 1014.2
20260507012522 58 308 0.0 2.0 0.00 0.00 0.00 91 1014.1
20260507012019 58 301 0.0 0.0 0.00 0.00 0.00 91 1014.1
20260507011507 58 305 0.0 1.0 0.00 0.00 0.00 91 1014.1
20260507011245 59 304 0.0 1.0 0.00 0.00 0.00 91 1014.1
20260507010945 59 301 0.0 0.0 0.00 0.00 0.00 92 1014.1
20260507005957 59 304 0.0 1.0 0.00 0.00 0.00 92 1014.1
20260507005459 59 295 0.0 1.0 0.00 0.00 0.00 92 1013.9
20260507004952 59 298 0.0 0.0 0.00 0.00 0.00 92 1013.9
20260507004450 58 298 0.0 0.0 0.00 0.00 0.00 92 1013.9
20260507003954 58 298 0.0 1.0 0.00 0.00 0.00 91 1013.9
20260507003444 58 296 0.0 1.0 0.00 0.00 0.00 92 1013.9
20260507002940 59 299 0.0 0.0 0.00 0.00 0.00 91 1013.9
20260507002450 59 302 0.0 0.0 0.00 0.00 0.00 92 1013.8